San Luis Potosi, Mexico

6:15 PM CST on March 26, 2017 (GMT -0600)
Ponciano Arriaga International

Weather History for MMSP - May, 2012

Change the Weather History Date:

Thursday, May 17, 2012

  Actual Average Record
Temperature  
Mean Temperature 64 °F -  
Max Temperature 84 °F 81 °F 93 °F (2013)
Min Temperature 45 °F 53 °F 43 °F (2014)
Growing Degree Days 14 (Base 50)    
Moisture  
Dew Point 46 °F    
Average Humidity 51    
Maximum Humidity 88    
Minimum Humidity 14    
Precipitation  
Precipitation 0.00 in - - ()
Sea Level Pressure  
Sea Level Pressure 30.05 in    
Wind  
Wind Speed 5 mph ()    
Max Wind Speed 18 mph    
Max Gust Speed -    
Visibility 12.0 miles    
Events      
Averages and records for this station are not official NWS values.
T = Trace of Precipitation, MM = Missing Value Source: Averaged Metar Reports

Daily Weather History Graph

Daily Weather History Graph

Search for Another Location

Airport or City:

Trip Planner

Search our weather history database for the weather conditions in past years. The results will help you decide how hot, cold, wet, or windy it might be!

Date:

Astronomy

May. 17, 2012 Rise Set
Actual Time 7:02 AM CDT 8:17 PM CDT
Civil Twilight 6:38 AM CDT 8:41 PM CDT
Nautical Twilight 6:10 AM CDT 9:10 PM CDT
Astronomical Twilight 5:40 AM CDT 9:40 PM CDT
Moon 4:44 AM CDT (5/17) 5:45 PM CDT (5/17)
Length of Visible Light 14h 03m
Length of Day
13h 14m
Waning Crescent, 9% of the Moon is Illuminated
May 17
Waning Crescent
May 20
New
May 28
First Quarter
Jun 4
Full
Jun 11
Last Quarter

Hourly Weather History & Observations

Time (CDT) Temp. Dew Point Humidity Pressure Visibility Wind Dir Wind Speed Gust Speed Precip Events Conditions
12:46 AM 59.0 °F 50.0 °F 72% 29.88 in 12.0 mi SE 9.2 mph - N/A   Clear
1:53 AM 57.2 °F 48.2 °F 72% 30.26 in 10.0 mi ESE 6.9 mph - N/A   Clear
2:53 AM 55.4 °F 46.4 °F 72% 30.23 in 10.0 mi ESE 4.6 mph - N/A   Clear
3:44 AM 55.4 °F 46.4 °F 72% 29.86 in 10.0 mi Calm Calm - N/A   Clear
4:45 AM 53.6 °F 48.2 °F 82% 30.22 in 10.0 mi Calm Calm - N/A   Clear
5:45 AM 53.6 °F 48.2 °F 82% 30.23 in 10.0 mi Calm Calm - N/A   Clear
6:46 AM 51.8 °F 48.2 °F 88% 29.89 in 8.0 mi Calm Calm - N/A   Mostly Cloudy
6:50 AM 52 °F 48 °F 82% 30.01 in 5 mi ENE 2.2 mph - -  
8:07 AM 59.0 °F 46.4 °F 63% 30.24 in 12.0 mi Calm Calm - N/A   Clear
8:54 AM 62.6 °F 48.2 °F 59% 30.27 in 12.0 mi East 6.9 mph - N/A   Clear
9:45 AM 63 °F 46 °F 44% 30.06 in 7 mi Calm Calm - -   Haze
9:49 AM 66.2 °F 50.0 °F 56% 29.87 in 15.0 mi Calm Calm - N/A   Clear
10:46 AM 69.8 °F 46.4 °F 43% 30.27 in 15.0 mi Calm Calm - N/A   Partly Cloudy
11:52 AM 73.4 °F 48.2 °F 41% 30.26 in 15.0 mi East 6.9 mph - N/A   Partly Cloudy
12:45 PM 73 °F 33 °F 14% 29.99 in 7 mi ENE 2.2 mph - -   Haze
12:46 PM 75.2 °F 46.4 °F 36% 29.84 in 15.0 mi East 6.9 mph - N/A   Partly Cloudy
1:49 PM 78.8 °F 44.6 °F 30% 30.19 in 15.0 mi NE 6.9 mph - N/A   Scattered Clouds
2:44 PM 80.6 °F 42.8 °F 26% 30.18 in 15.0 mi ENE 9.2 mph - N/A   Scattered Clouds
3:49 PM 82.4 °F 42.8 °F 25% 29.71 in 15.0 mi NE 9.2 mph - N/A   Scattered Clouds
4:54 PM 80.6 °F 42.8 °F 26% 30.10 in 15.0 mi NE 18.4 mph - N/A   Scattered Clouds
5:51 PM 82.4 °F 41.0 °F 23% 30.08 in 12.0 mi NE 13.8 mph - N/A   Scattered Clouds
6:43 PM 80.6 °F 42.8 °F 26% 29.69 in 15.0 mi East 11.5 mph - N/A   Scattered Clouds
6:50 PM 81 °F 46 °F 19% 29.71 in 12 mi East 4.5 mph - -   Clear
7:50 PM 75.2 °F 44.6 °F 34% 30.10 in 15.0 mi East 16.1 mph - N/A   Mostly Cloudy
8:46 PM 69.8 °F 44.6 °F 40% 30.12 in 12.0 mi East 11.5 mph - N/A   Scattered Clouds
9:44 PM 66.2 °F 51.8 °F 60% 29.75 in 12.0 mi ESE 6.9 mph - N/A   Mostly Cloudy
10:40 PM 64.4 °F 53.6 °F 68% 30.17 in 12.0 mi ESE 6.9 mph - N/A   Mostly Cloudy
11:47 PM 62.6 °F 51.8 °F 68% 30.20 in 12.0 mi ESE 11.5 mph - N/A   Scattered Clouds